Weather reports worldwide

Advertisment
Stornoway, United Kingdom (3026): temperature & dewpoint: 17.10.2019 04:00:00 - 23.10.2019 04:00:00 (BST)Stornoway, United Kingdom (3026): temperature -20cm & temperature -100cm: 17.10.2019 04:00:00 - 23.10.2019 04:00:00 (BST)Stornoway, United Kingdom (3026): wind speed & gusts: 17.10.2019 04:00:00 - 23.10.2019 04:00:00 (BST)Stornoway, United Kingdom (3026): wind direction: 17.10.2019 04:00:00 - 23.10.2019 04:00:00 (BST)Stornoway, United Kingdom (3026): reduced air pressure: 17.10.2019 04:00:00 - 23.10.2019 04:00:00 (BST)Stornoway, United Kingdom (3026): visibility: 17.10.2019 04:00:00 - 23.10.2019 04:00:00 (BST)Stornoway, United Kingdom (3026): sunshine duration: 17.10.2019 04:00:00 - 23.10.2019 04:00:00 (BST)Stornoway, United Kingdom (3026): precipitation: 17.10.2019 04:00:00 - 23.10.2019 04:00:00 (BST)
Date & Time tt [°C] td [°C] tt -20cm [°C] tt -100cm [°C] ff [km/h] ff [kn] fx [km/h] fx [kn] dd ppp [hPa] vv [km] sd [min] rr [mm]
23.10.2019 04:00:00 11,6 11,1 - - 31 17 - - SSW 1003,5 13 0 0,0
23.10.2019 03:00:00 11,5 11,0 - - 34 18 48 26 SSW 1004,3 21 0 0,2
23.10.2019 02:00:00 11,6 11,1 - - 35 19 54 29 SSW 1004,6 11 0 0,0
23.10.2019 01:00:00 11,5 11,0 - - 37 20 57 31 SSW 1004,7 22 - 0,0
23.10.2019 00:00:00 11,6 11,1 - - 44 24 61 33 SW 1004,9 5 0 0,2
22.10.2019 23:00:00 11,6 11,1 - - 44 24 67 36 SSW 1004,9 5 0 0,4
22.10.2019 22:00:00 11,5 11,1 - - 41 22 57 31 SSW 1005,1 9 0 0,4
22.10.2019 21:00:00 11,4 11,0 - - 41 22 55 30 SSW 1005,5 8 0 0,0
22.10.2019 20:00:00 11,3 10,7 - - 44 24 65 35 SSW 1006,1 23 0 0,0
22.10.2019 19:00:00 11,6 9,4 - - 41 22 57 31 SW 1006,0 40 0 0,0
22.10.2019 18:00:00 11,7 9,8 - - 35 19 57 31 SW 1006,5 26 0 0,0
22.10.2019 17:00:00 12,1 9,7 - - 41 22 63 34 SW 1006,4 75 0 0,0
22.10.2019 16:00:00 12,0 9,3 - - 39 21 63 34 SW 1007,0 28 0 0,0
22.10.2019 15:00:00 12,3 9,3 - - 39 21 57 31 SW 1007,6 70 6 0,2
22.10.2019 14:00:00 11,9 10,5 - - 34 18 52 28 SW 1008,2 45 0 0,2
22.10.2019 13:00:00 11,8 10,4 - - 37 20 52 28 SW 1008,5 25 0 0,2
22.10.2019 12:00:00 11,8 10,8 - - 35 19 52 28 SW 1008,7 18 0 0,4
22.10.2019 11:00:00 11,7 11,0 - - 37 20 52 28 SW 1008,5 15 0 0,2
22.10.2019 10:00:00 11,7 11,1 10,0 10,9 37 20 52 28 SW 1008,2 19 0 0,2
22.10.2019 09:00:00 11,5 11,0 - - 37 20 52 28 SW 1007,9 5 0 0,4
22.10.2019 08:00:00 11,4 10,9 - - 35 19 48 26 SW 1007,9 5 0 0,8
22.10.2019 07:00:00 11,2 10,8 - - 34 18 50 27 SW 1007,7 3,6 0 0,8
22.10.2019 06:00:00 11,0 10,4 - - 35 19 52 28 SW 1008,0 3,9 0 0,6
22.10.2019 05:00:00 10,8 10,2 - - 37 20 52 28 SW 1008,5 6 0 0,2
22.10.2019 04:00:00 10,8 10,1 - - 35 19 55 30 SW 1008,8 14 0 0,2
22.10.2019 03:00:00 11,0 10,0 - - 41 22 59 32 WSW 1009,3 3,7 0 0,2
22.10.2019 02:00:00 11,0 9,7 - - 44 24 59 32 SW 1009,5 30 0 0,4
22.10.2019 01:00:00 11,0 9,2 - - 39 21 61 33 SW 1010,3 19 - 0,0
22.10.2019 00:00:00 11,2 8,5 - - 41 22 57 31 SW 1010,9 25 0 0,0
21.10.2019 23:00:00 11,0 7,7 - - 42 23 67 36 SW 1011,4 40 0 0,0
21.10.2019 22:00:00 11,0 7,4 - - 46 25 63 34 SW 1011,8 40 0 0,0
21.10.2019 21:00:00 10,6 7,0 - - 42 23 63 34 SW 1012,7 55 0 0,0
21.10.2019 20:00:00 10,4 7,0 - - 46 25 59 32 SW 1013,2 60 0 0,0
21.10.2019 19:00:00 10,1 6,9 - - 44 24 63 34 SW 1013,3 60 0 0,0
21.10.2019 18:00:00 9,7 6,9 - - 41 22 59 32 SW 1014,2 75 0 0,0
21.10.2019 17:00:00 9,7 7,0 - - 35 19 57 31 SW 1015,4 75 0 0,0
21.10.2019 16:00:00 9,6 6,6 - - 41 22 59 32 SW 1016,2 80 0 0,0
21.10.2019 15:00:00 9,7 6,3 - - 39 21 54 29 SW 1017,3 75 6 0,0
21.10.2019 14:00:00 10,4 6,8 - - 34 18 48 26 SW 1018,1 75 12 0,0
21.10.2019 13:00:00 9,6 6,0 - - 26 14 46 25 SW 1019,0 75 0 0,0
21.10.2019 12:00:00 9,5 4,5 - - 26 14 - - SW 1019,6 75 0 0,0
21.10.2019 11:00:00 9,1 4,2 - - 24 13 - - SSW 1020,2 75 0 0,0
21.10.2019 10:00:00 8,5 4,0 10,0 11,0 22 12 - - SSW 1020,7 75 0 0,0
21.10.2019 09:00:00 8,1 3,4 - - 21 11 - - SSW 1021,1 75 0 0,0
21.10.2019 08:00:00 7,9 3,1 - - 18 10 - - SSW 1021,5 75 0 0,0
21.10.2019 07:00:00 7,7 2,5 - - 16 9 - - SSW 1022,1 75 0 0,0
21.10.2019 06:00:00 7,5 2,2 - - 16 9 - - SSW 1022,7 75 0 0,0
21.10.2019 05:00:00 7,2 2,5 - - 13 7 - - SSW 1023,1 75 0 0,0
21.10.2019 04:00:00 6,6 2,4 - - 5 3 - - SW 1023,3 75 0 0,0
21.10.2019 03:00:00 6,2 2,8 - - 9 5 - - WSW 1023,7 75 0 0,0
21.10.2019 02:00:00 6,6 2,9 - - 9 5 - - W 1024,2 75 0 0,0
21.10.2019 01:00:00 6,6 2,5 - - 8 4 61 33 SSW 1024,4 75 - 0,0
21.10.2019 00:00:00 6,3 3,0 - - 8 4 - - W 1024,8 75 0 0,0
20.10.2019 23:00:00 6,5 2,6 - - 5 3 - - W 1024,6 75 0 0,0
20.10.2019 22:00:00 6,4 2,9 - - 5 3 - - NW 1024,4 75 0 0,0
20.10.2019 21:00:00 8,0 1,6 - - 11 6 - - NE 1023,9 70 0 0,0
20.10.2019 20:00:00 7,5 3,2 - - 13 7 - - N 1023,9 30 0 0,0
20.10.2019 19:00:00 7,8 4,2 - - 13 7 - - N 1023,6 23 0 0,0
20.10.2019 18:00:00 7,2 4,0 - - 15 8 - - N 1023,2 35 0 0,0
20.10.2019 17:00:00 8,1 4,3 - - 18 10 - - NNE 1022,9 35 6 0,0
20.10.2019 16:00:00 8,1 4,2 - - 24 13 - - N 1022,8 30 0 0,0
20.10.2019 15:00:00 8,4 5,0 - - 24 13 - - N 1022,3 25 18 0,0
20.10.2019 14:00:00 9,0 4,1 - - 26 14 - - NNE 1021,8 25 18 0,0
20.10.2019 13:00:00 9,4 3,9 - - 26 14 - - N 1021,3 35 42 0,0
20.10.2019 12:00:00 8,8 3,9 - - 26 14 - - N 1020,7 28 30 0,0
20.10.2019 11:00:00 8,3 3,8 - - 28 15 - - N 1020,2 17 0 0,0
20.10.2019 10:00:00 7,6 4,2 10,2 11,0 29 16 - - NNE 1019,8 14 0 0,0
20.10.2019 09:00:00 6,6 3,9 - - 26 14 - - N 1018,9 25 0 0,0
20.10.2019 08:00:00 7,3 3,6 - - 34 18 - - N 1018,3 26 0 0,0
20.10.2019 07:00:00 7,7 3,9 - - 34 18 - - NNE 1017,4 18 0 0,0
20.10.2019 06:00:00 6,7 4,5 - - 22 12 48 26 N 1016,7 18 0 0,0
20.10.2019 05:00:00 6,3 4,1 - - 21 11 - - N 1016,1 14 0 0,2
20.10.2019 04:00:00 7,2 4,2 - - 29 16 - - N 1015,4 16 0 0,0
20.10.2019 03:00:00 7,0 4,3 - - 26 14 - - N 1014,9 17 0 0,0
20.10.2019 02:00:00 7,6 3,5 - - 29 16 - - N 1014,5 14 0 0,0
20.10.2019 01:00:00 7,8 4,5 - - 37 20 50 27 N 1014,1 18 - 0,0
20.10.2019 00:00:00 8,4 5,0 - - 35 19 55 30 NNE 1013,5 19 0 0,0
19.10.2019 23:00:00 9,0 6,0 - - 41 22 55 30 NNE 1012,7 14 0 0,0
19.10.2019 22:00:00 9,9 6,5 - - 42 23 59 32 NE 1011,9 16 0 0,6
19.10.2019 21:00:00 10,3 7,7 - - 37 20 55 30 NE 1010,9 16 0 0,2
19.10.2019 20:00:00 9,5 7,9 - - 34 18 52 28 ENE 1010,2 22 0 0,4
19.10.2019 19:00:00 9,5 8,7 - - 37 20 52 28 NNE 1009,2 3,3 0 0,6
19.10.2019 18:00:00 9,5 8,5 - - 39 21 59 32 N 1008,4 14 0 0,0
19.10.2019 17:00:00 9,4 8,0 - - 39 21 61 33 N 1008,1 8 30 0,0
19.10.2019 16:00:00 9,8 6,9 - - 44 24 63 34 NNE 1007,7 19 42 0,0
19.10.2019 15:00:00 10,3 7,8 - - 46 25 67 36 NNE 1007,4 17 18 0,0
19.10.2019 14:00:00 10,4 7,4 - - 46 25 67 36 NNE 1006,8 18 0 0,2
19.10.2019 13:00:00 9,6 8,3 - - 46 25 65 35 NE 1006,4 5 12 0,4
19.10.2019 12:00:00 10,1 8,8 - - 41 22 55 30 NNE 1005,8 11 0 0,2
19.10.2019 11:00:00 10,2 8,4 - - 29 16 - - N 1005,5 25 6 0,0
19.10.2019 10:00:00 9,8 8,5 10,5 11,0 34 18 52 28 NNE 1005,3 25 0 0,2
19.10.2019 09:00:00 9,8 7,9 - - 29 16 46 25 NNE 1004,7 21 0 0,0
19.10.2019 08:00:00 9,5 7,5 - - 26 14 - - NNE 1004,2 18 0 0,0
19.10.2019 07:00:00 10,2 8,1 - - 29 16 - - NNE 1003,8 19 0 0,0
19.10.2019 06:00:00 9,9 7,4 - - 26 14 - - NNE 1003,2 22 0 0,0
19.10.2019 05:00:00 11,0 7,8 - - 31 17 - - NE 1002,7 27 0 0,0
19.10.2019 04:00:00 10,9 7,8 - - 34 18 48 26 NE 1002,3 19 0 0,0
19.10.2019 03:00:00 11,0 7,6 - - 37 20 52 28 NE 1001,9 26 0 0,0
19.10.2019 02:00:00 11,0 7,7 - - 35 19 48 26 NE 1001,5 25 0 0,0
19.10.2019 01:00:00 11,1 7,4 - - 35 19 48 26 NE 1001,2 30 - 0,0
19.10.2019 00:00:00 11,3 8,4 - - 37 20 48 26 NE 1000,8 27 0 0,0
18.10.2019 23:00:00 11,4 8,3 - - 35 19 50 27 NE 1000,3 28 0 0,0
18.10.2019 22:00:00 11,4 8,2 - - 35 19 52 28 NE 999,6 30 0 0,0
18.10.2019 21:00:00 11,5 8,3 - - 37 20 50 27 NE 999,0 30 0 0,0
18.10.2019 20:00:00 11,4 9,5 - - 28 15 46 25 NE 998,7 30 0 0,0
18.10.2019 19:00:00 11,0 9,1 - - 35 19 50 27 NE 998,2 35 0 0,0
18.10.2019 18:00:00 11,2 8,6 - - 34 18 48 26 NE 997,8 55 6 0,0
18.10.2019 17:00:00 11,6 9,1 - - 35 19 - - NE 997,2 45 6 0,0
18.10.2019 16:00:00 11,5 8,4 - - 31 17 - - NE 997,2 55 18 0,0
18.10.2019 15:00:00 11,9 8,6 - - 29 16 - - NE 996,9 70 48 0,0
18.10.2019 14:00:00 12,1 9,4 - - 24 13 - - NE 996,8 60 48 0,0
18.10.2019 13:00:00 11,7 8,1 - - 24 13 - - NE 996,5 75 54 0,0
18.10.2019 12:00:00 12,5 9,2 - - 24 13 - - E 996,5 75 54 0,0
18.10.2019 11:00:00 11,7 8,7 - - 24 13 - - ENE 996,3 70 30 0,0
18.10.2019 10:00:00 11,2 8,9 10,5 11,2 21 11 - - E 996,2 60 36 0,0
18.10.2019 09:00:00 10,2 8,3 - - 24 13 - - E 995,6 55 0 0,0
18.10.2019 08:00:00 9,3 7,7 - - 13 7 - - E 995,6 40 0 0,0
18.10.2019 07:00:00 9,5 7,9 - - 18 10 - - E 995,1 50 0 0,0
18.10.2019 06:00:00 9,9 8,1 - - 16 9 - - E 994,9 55 0 0,0
18.10.2019 05:00:00 10,0 8,4 - - 16 9 - - E 995,1 55 0 0,0
18.10.2019 04:00:00 10,1 8,4 - - 15 8 - - E 995,0 55 0 0,0
18.10.2019 03:00:00 9,8 8,5 - - 11 6 - - E 995,3 70 0 0,0
18.10.2019 02:00:00 9,6 7,9 - - 11 6 - - ESE 995,6 40 0 0,0
18.10.2019 01:00:00 10,0 7,9 - - 13 7 48 26 ESE 995,9 30 - 0,0
18.10.2019 00:00:00 9,9 8,3 - - 13 7 - - ESE 996,0 70 0 0,0
17.10.2019 23:00:00 10,6 8,3 - - 16 9 - - ESE 996,2 75 0 0,0
17.10.2019 22:00:00 10,4 8,2 - - 16 9 - - E 996,3 65 0 0,0
17.10.2019 21:00:00 11,0 8,5 - - 18 10 - - ESE 996,5 65 0 0,0
17.10.2019 20:00:00 10,5 8,2 - - 15 8 - - E 996,5 65 0 0,0
17.10.2019 19:00:00 10,6 7,7 - - 15 8 - - ESE 996,6 70 0 0,0
17.10.2019 18:00:00 11,0 7,4 - - 22 12 - - ESE 996,5 75 0 0,0
17.10.2019 17:00:00 11,4 7,7 - - 22 12 - - E 996,7 70 0 0,0
17.10.2019 16:00:00 11,9 7,3 - - 22 12 - - ESE 997,0 75 0 0,0
17.10.2019 15:00:00 12,0 7,0 - - 22 12 - - ESE 997,2 75 24 0,0
17.10.2019 14:00:00 12,6 7,5 - - 16 9 - - SE 997,1 65 60 0,0
17.10.2019 13:00:00 12,5 6,7 - - 22 12 - - SE 997,4 70 60 0,0
17.10.2019 12:00:00 12,0 7,2 - - 22 12 - - SE 997,6 65 48 0,0
17.10.2019 11:00:00 11,4 6,2 - - 22 12 - - SE 997,7 70 60 0,0
17.10.2019 10:00:00 10,6 6,3 10,5 11,2 24 13 - - SE 997,6 60 24 0,0
17.10.2019 09:00:00 10,1 6,2 - - 24 13 - - SE 997,3 55 0 0,0
17.10.2019 08:00:00 10,1 6,6 - - 21 11 - - SE 997,0 50 0 0,0
17.10.2019 07:00:00 10,3 5,6 - - 22 12 - - SE 996,9 60 0 0,0
17.10.2019 06:00:00 10,3 6,1 - - 28 15 - - SSE 997,1 60 0 0,0
17.10.2019 05:00:00 10,3 6,9 - - 26 14 - - SSE 997,3 55 0 0,0
17.10.2019 04:00:00 10,5 7,1 - - 26 14 - - S 997,3 65 0 0,0

tt = temperature
td = dewpoint
tt -20cm = temperature -20cm
tt -100cm = temperature -100cm
ff = wind speed
fx = gusts
dd = wind direction
ppp = reduced air pressure
vv = visibility
sd = sunshine duration
rr = precipitation

Next stations